NORTHEAST SUFFOLK  -  Special Weather Statement Special Weather Statement        NORTHERN NASSAU  -  Special Weather Statement Special Weather Statement        NORTHWEST SUFFOLK  -  Special Weather Statement Special Weather Statement        SOUTHEAST SUFFOLK  -  Special Weather Statement Special Weather Statement        SOUTHERN NASSAU  -  Special Weather Statement Special Weather Statement        SOUTHWEST SUFFOLK  -  Special Weather Statement Special Weather Statement      

Active alerts

Northern Nassau
  Details for Northern Nassau Special Weather Statement
Southern Nassau
  Details for Southern Nassau Special Weather Statement
Northwest Suffolk
  Details for Northwest Suffolk Special Weather Statement
Southwest Suffolk
  Details for Southwest Suffolk Special Weather Statement
Northeast Suffolk
  Details for Northeast Suffolk Special Weather Statement
Southeast Suffolk
  Details for Southeast Suffolk Special Weather Statement


WXM80 ListenWXM80 Stop

You find our weather info also at:

UK Metoffice

WeatherCloud

Weather Underground

Northeastern Weather Network

AWEKAS

Citizen Weather Observer Program (CWOP)

HAMweather, WeatherForYou, PWS Weather


Weather Underground History page Text

Daily Summary for August 21, 2017 Units:  Metric    English   Both
« Previous Day
Next Day »
Daily Weekly Monthly Yearly Custom
  High: Low: Average:
Temperature: 33.2 °C 18 °C 24.6 °C
Dew Point: 22.6 °C 16.4 °C 19.6 °C
Humidity: 94 % 49 % 76 %
Wind Speed: 7.7 km/h 0 km/h 1.6 km/h
Wind Gust: 13 km/h - -
Wind:- - SW
Pressure: 1020.9 hPa 1016.8 hPa -
Precipitation: 0 mm    
Historical Graphs
 
 
Tabular Data for August 21, 2017
Time Temperature Dew Point Pressure Wind Wind Speed Wind Gust Humidity Rainfall Rate (Hourly)
00:00 20.7 °C 17.3 °C 1019.2 hPa West 1.8 km/h 5.6 km/h 81 % 0 mm
00:01 20.7 °C 17.3 °C 1019.2 hPa West 0.3 km/h 5.6 km/h 81 % 0 mm
00:06 20.7 °C 17.5 °C 1019.2 hPa SW 1.3 km/h 3.2 km/h 82 % 0 mm
00:11 20.6 °C 17.4 °C 1019.2 hPa WSW 0.3 km/h 3.7 km/h 82 % 0 mm
00:17 20.7 °C 17.5 °C 1019.2 hPa WSW 1.8 km/h 5.6 km/h 82 % 0 mm
00:22 20.7 °C 17.5 °C 1019.2 hPa Calm   5.6 km/h 82 % 0 mm
00:27 20.7 °C 17.7 °C 1019.2 hPa Calm   1.9 km/h 83 % 0 mm
00:32 20.7 °C 17.6 °C 1019.2 hPa Calm     82 % 0 mm
00:37 20.7 °C 17.6 °C 1019.2 hPa Calm     82 % 0 mm
00:42 20.7 °C 17.6 °C 1019.2 hPa Calm     82 % 0 mm
00:47 20.7 °C 17.5 °C 1019.2 hPa Calm     82 % 0 mm
00:52 20.6 °C 17.4 °C 1019.5 hPa Calm     82 % 0 mm
00:57 20.6 °C 17.4 °C 1019.5 hPa Calm     82 % 0 mm
01:02 20.4 °C 17.3 °C 1019.2 hPa Calm     82 % 0 mm
01:07 20.4 °C 17.2 °C 1019.2 hPa Calm     82 % 0 mm
01:12 20.3 °C 17.3 °C 1019.2 hPa Calm     83 % 0 mm
01:17 20.3 °C 17.5 °C 1019.5 hPa WSW 1.1 km/h 3.7 km/h 84 % 0 mm
01:22 20.2 °C 17.4 °C 1019.2 hPa WSW 0.8 km/h 3.2 km/h 84 % 0 mm
01:27 20.1 °C 17.3 °C 1019.2 hPa Calm     84 % 0 mm
01:32 20.1 °C 17.3 °C 1019.2 hPa Calm     84 % 0 mm
01:37 20 °C 17.4 °C 1019.5 hPa Calm     85 % 0 mm
01:42 19.9 °C 17.3 °C 1019.5 hPa Calm     85 % 0 mm
01:47 19.9 °C 17.3 °C 1019.2 hPa Calm   1.9 km/h 85 % 0 mm
01:48 19.9 °C 17.3 °C 1019.2 hPa Calm   1.9 km/h 85 % 0 mm
01:53 19.9 °C 17.3 °C 1019.2 hPa Calm   1.9 km/h 85 % 0 mm
01:58 19.8 °C 17.2 °C 1019.2 hPa Calm     85 % 0 mm
02:03 19.8 °C 17.2 °C 1019.2 hPa Calm     85 % 0 mm
02:08 19.8 °C 17.2 °C 1019.2 hPa Calm     85 % 0 mm
02:13 19.7 °C 17.1 °C 1019.5 hPa Calm     85 % 0 mm
02:18 19.7 °C 17.1 °C 1019.5 hPa Calm     85 % 0 mm
02:23 19.6 °C 17.2 °C 1019.5 hPa Calm   1.9 km/h 86 % 0 mm
02:28 19.6 °C 17.2 °C 1019.5 hPa Calm   1.9 km/h 86 % 0 mm
02:33 19.6 °C 17.3 °C 1019.5 hPa Calm     87 % 0 mm
02:38 19.5 °C 17.3 °C 1019.5 hPa Calm     87 % 0 mm
02:43 19.4 °C 17.2 °C 1019.5 hPa Calm     87 % 0 mm
02:48 19.4 °C 17.2 °C 1019.5 hPa Calm     87 % 0 mm
02:53 19.4 °C 17.2 °C 1019.2 hPa Calm     87 % 0 mm
02:58 19.3 °C 17.1 °C 1019.2 hPa Calm     87 % 0 mm
03:03 19.3 °C 17.1 °C 1019.2 hPa Calm   1.9 km/h 87 % 0 mm
03:08 19.3 °C 17.1 °C 1019.2 hPa Calm     87 % 0 mm
03:13 19.2 °C 17 °C 1019.2 hPa WSW 0.2 km/h 1.9 km/h 87 % 0 mm
03:18 19.2 °C 16.9 °C 1019.5 hPa Calm     87 % 0 mm
03:23 19.2 °C 16.9 °C 1019.2 hPa Calm     87 % 0 mm
03:28 19.1 °C 16.8 °C 1019.2 hPa Calm     87 % 0 mm
03:33 19.1 °C 17 °C 1019.2 hPa Calm     88 % 0 mm
03:38 19 °C 16.9 °C 1019.2 hPa Calm     88 % 0 mm
03:43 18.9 °C 16.9 °C 1019.2 hPa Calm     88 % 0 mm
03:48 18.9 °C 16.8 °C 1019.2 hPa Calm     88 % 0 mm
03:53 18.8 °C 17 °C 1019.2 hPa Calm     89 % 0 mm
03:59 18.8 °C 17 °C 1019.2 hPa WSW 0.3 km/h 1.9 km/h 89 % 0 mm
04:04 18.8 °C 17 °C 1019.2 hPa Calm     89 % 0 mm
04:09 18.8 °C 16.9 °C 1019.2 hPa Calm     89 % 0 mm
04:14 18.8 °C 16.9 °C 1019.2 hPa Calm     89 % 0 mm
04:19 18.8 °C 17.1 °C 1019.2 hPa Calm     90 % 0 mm
04:24 18.7 °C 17.1 °C 1019.5 hPa Calm     90 % 0 mm
04:29 18.7 °C 16.9 °C 1019.5 hPa Calm     89 % 0 mm
04:34 18.7 °C 16.9 °C 1019.5 hPa Calm     89 % 0 mm
04:39 18.7 °C 17 °C 1019.9 hPa Calm     90 % 0 mm
04:44 18.7 °C 17 °C 1019.9 hPa Calm     90 % 0 mm
04:49 18.6 °C 16.9 °C 1019.9 hPa Calm     90 % 0 mm
04:55 18.6 °C 16.9 °C 1019.9 hPa Calm     90 % 0 mm
05:00 18.6 °C 16.9 °C 1019.5 hPa Calm     90 % 0 mm
05:05 18.6 °C 16.9 °C 1019.9 hPa Calm     90 % 0 mm
05:10 18.5 °C 16.8 °C 1019.9 hPa Calm     90 % 0 mm
05:15 18.5 °C 16.8 °C 1019.9 hPa Calm     90 % 0 mm
05:20 18.4 °C 16.8 °C 1019.9 hPa Calm     90 % 0 mm
05:25 18.4 °C 16.8 °C 1019.9 hPa Calm     90 % 0 mm
05:30 18.4 °C 16.7 °C 1019.9 hPa Calm     90 % 0 mm
05:35 18.3 °C 16.7 °C 1019.9 hPa Calm     90 % 0 mm
05:40 18.3 °C 16.7 °C 1020.2 hPa Calm     90 % 0 mm
05:45 18.3 °C 16.6 °C 1020.2 hPa Calm   1.9 km/h 90 % 0 mm
05:50 18.3 °C 16.6 °C 1020.2 hPa Calm     90 % 0 mm
05:55 18.2 °C 16.7 °C 1020.2 hPa Calm     91 % 0 mm
06:00 18.2 °C 16.6 °C 1020.2 hPa Calm     90 % 0 mm
06:05 18.2 °C 16.5 °C 1020.2 hPa Calm     90 % 0 mm
06:10 18.1 °C 16.4 °C 1020.2 hPa Calm     90 % 0 mm
06:15 18.1 °C 16.4 °C 1020.2 hPa Calm     90 % 0 mm
06:20 18.1 °C 16.4 °C 1020.2 hPa Calm     90 % 0 mm
06:25 18.1 °C 16.4 °C 1020.2 hPa Calm     90 % 0 mm
06:30 18 °C 16.5 °C 1020.2 hPa Calm     91 % 0 mm
06:35 18 °C 16.5 °C 1020.2 hPa Calm   1.9 km/h 91 % 0 mm
06:40 18 °C 16.7 °C 1020.5 hPa WSW 1.6 km/h 5.6 km/h 92 % 0 mm
06:45 18 °C 16.7 °C 1020.5 hPa WSW 1.9 km/h 3.7 km/h 92 % 0 mm
06:47 18.1 °C 16.9 °C 1020.2 hPa WSW 0.5 km/h 1.9 km/h 93 % 0 mm
06:52 18.1 °C 16.9 °C 1020.5 hPa Calm     93 % 0 mm
06:57 18.2 °C 17 °C 1020.2 hPa Calm     93 % 0 mm
07:02 18.3 °C 17.1 °C 1020.2 hPa WSW 0.3 km/h 1.9 km/h 93 % 0 mm
07:07 18.4 °C 17.4 °C 1020.5 hPa Calm     94 % 0 mm
07:12 18.5 °C 17.5 °C 1020.5 hPa WSW 0.2 km/h 1.9 km/h 94 % 0 mm
07:18 18.7 °C 17.7 °C 1020.5 hPa WSW 0.2 km/h 1.9 km/h 94 % 0 mm
07:23 18.8 °C 17.6 °C 1020.5 hPa WSW 0.5 km/h 3.7 km/h 93 % 0 mm
07:28 18.9 °C 17.8 °C 1020.5 hPa WSW 1.9 km/h 3.7 km/h 93 % 0 mm
07:33 19.1 °C 17.9 °C 1020.5 hPa WSW 3.2 km/h 5.6 km/h 93 % 0 mm
07:38 19.3 °C 18.1 °C 1020.5 hPa SW 2.1 km/h 5.6 km/h 93 % 0 mm
07:43 19.4 °C 18.1 °C 1020.5 hPa SW 2.4 km/h 5.6 km/h 92 % 0 mm
07:48 19.7 °C 18.3 °C 1020.5 hPa SW 4.2 km/h 5.6 km/h 92 % 0 mm
07:53 19.9 °C 18.6 °C 1020.5 hPa SW 1.9 km/h 5.6 km/h 92 % 0 mm
07:58 20.1 °C 18.6 °C 1020.5 hPa SW 3.1 km/h 5.6 km/h 91 % 0 mm
08:03 20.3 °C 18.8 °C 1020.5 hPa SW 3.7 km/h 5.6 km/h 91 % 0 mm
08:08 20.4 °C 18.7 °C 1020.5 hPa SW 1.9 km/h 3.7 km/h 90 % 0 mm
08:13 20.7 °C 18.9 °C 1020.5 hPa SW 4.7 km/h 6.4 km/h 90 % 0 mm
08:18 20.8 °C 18.9 °C 1020.5 hPa SW 2.9 km/h 5.6 km/h 89 % 0 mm
08:23 21.1 °C 19.1 °C 1020.5 hPa WSW 3.7 km/h 8 km/h 88 % 0 mm
08:28 21.4 °C 19.1 °C 1020.5 hPa SW 7.4 km/h 9.7 km/h 87 % 0 mm
08:33 21.7 °C 19.2 °C 1020.5 hPa West 2.4 km/h 3.7 km/h 86 % 0 mm
08:38 21.9 °C 19.4 °C 1020.5 hPa West 6.9 km/h 11.1 km/h 86 % 0 mm
08:44 22.2 °C 19.5 °C 1020.9 hPa WNW 2.9 km/h 5.6 km/h 85 % 0 mm
08:49 22.3 °C 19.5 °C 1020.5 hPa WNW 2.9 km/h 7.4 km/h 84 % 0 mm
08:54 22.6 °C 19.8 °C 1020.5 hPa SW 4.3 km/h 8 km/h 84 % 0 mm
08:59 22.8 °C 19.6 °C 1020.5 hPa WSW 3.1 km/h 5.6 km/h 82 % 0 mm
09:04 23 °C 19.8 °C 1020.5 hPa WNW 5.1 km/h 7.4 km/h 82 % 0 mm
09:09 23.2 °C 20 °C 1020.5 hPa West 7.7 km/h 9.7 km/h 82 % 0 mm
09:14 23.4 °C 20 °C 1020.5 hPa West 3.1 km/h 12.9 km/h 81 % 0 mm
09:19 23.6 °C 19.9 °C 1020.5 hPa SW 7.2 km/h 9.7 km/h 80 % 0 mm
09:24 23.8 °C 19.9 °C 1020.5 hPa West 2.9 km/h 5.6 km/h 79 % 0 mm
09:29 23.9 °C 19.9 °C 1020.5 hPa SSW 5.6 km/h 7.4 km/h 78 % 0 mm
09:34 24.1 °C 20.2 °C 1020.5 hPa SW 3.2 km/h 5.6 km/h 79 % 0 mm
09:39 24.3 °C 20.1 °C 1020.5 hPa WNW 6.8 km/h 7.4 km/h 77 % 0 mm
09:45 24.6 °C 20.3 °C 1020.5 hPa SW 2.7 km/h 7.4 km/h 77 % 0 mm
09:50 24.8 °C 20.4 °C 1020.2 hPa Calm   1.9 km/h 77 % 0 mm
09:55 25.2 °C 20.8 °C 1020.2 hPa West 3.1 km/h 9.3 km/h 77 % 0 mm
10:00 25.6 °C 20.8 °C 1020.2 hPa West 2.4 km/h 5.6 km/h 75 % 0 mm
10:05 25.9 °C 20.3 °C 1020.2 hPa WNW 5 km/h 11.1 km/h 71 % 0 mm
10:10 26.3 °C 20.7 °C 1020.2 hPa NW 3.7 km/h 9.7 km/h 71 % 0 mm
10:15 26.6 °C 20.4 °C 1020.2 hPa SW 5 km/h 7.4 km/h 69 % 0 mm
10:20 26.8 °C 20.6 °C 1020.2 hPa West 1.3 km/h 3.7 km/h 69 % 0 mm
10:25 26.8 °C 20.7 °C 1020.2 hPa SW 5.5 km/h 9.3 km/h 69 % 0 mm
10:30 26.9 °C 20.7 °C 1020.2 hPa WSW 2.6 km/h 5.6 km/h 69 % 0 mm
10:35 26.9 °C 20.5 °C 1020.2 hPa WSW 2.6 km/h 5.6 km/h 68 % 0 mm
10:40 26.9 °C 20.9 °C 1020.2 hPa West 0.3 km/h 3.7 km/h 70 % 0 mm
10:45 26.9 °C 21 °C 1020.5 hPa West 1.8 km/h 3.7 km/h 70 % 0 mm
10:50 27.1 °C 20.9 °C 1020.5 hPa SW 5.3 km/h 11.1 km/h 69 % 0 mm
10:55 27.3 °C 21.1 °C 1020.5 hPa WNW 2.4 km/h 5.6 km/h 69 % 0 mm
11:00 27.6 °C 21.3 °C 1020.5 hPa SW 2.7 km/h 5.6 km/h 69 % 0 mm
11:05 27.8 °C 20.9 °C 1020.2 hPa SSW 4.3 km/h 9.3 km/h 66 % 0 mm
11:10 28.3 °C 21.3 °C 1020.5 hPa WNW 3.9 km/h 9.3 km/h 66 % 0 mm
11:15 28.7 °C 21.2 °C 1020.5 hPa SW 6.3 km/h 9.3 km/h 64 % 0 mm
11:20 28.9 °C 21.4 °C 1020.2 hPa WSW 0.6 km/h 5.6 km/h 64 % 0 mm
11:25 29.1 °C 21.6 °C 1020.2 hPa WSW 4.2 km/h 5.6 km/h 64 % 0 mm
11:30 29.2 °C 21.4 °C 1020.2 hPa West 1.1 km/h 3.7 km/h 63 % 0 mm
11:36 29.4 °C 22.6 °C 1020.2 hPa West 1.6 km/h 6.4 km/h 67 % 0 mm
11:41 29.7 °C 22.1 °C 1020.2 hPa NW 1.9 km/h 4.8 km/h 64 % 0 mm
11:46 29.9 °C 21.6 °C 1020.2 hPa NW 3.2 km/h 8 km/h 61 % 0 mm
11:51 30.2 °C 21.6 °C 1020.2 hPa NW 1.6 km/h 11.3 km/h 60 % 0 mm
11:56 30.5 °C 21 °C 1020.2 hPa West 4.8 km/h 9.7 km/h 57 % 0 mm
12:01 30.7 °C 21.2 °C 1020.2 hPa West 6.3 km/h 11.3 km/h 57 % 0 mm
12:06 31 °C 21.8 °C 1019.9 hPa WSW 3.7 km/h 7.4 km/h 58 % 0 mm
12:11 31.2 °C 21.4 °C 1019.9 hPa WNW 1 km/h 9.3 km/h 56 % 0 mm
12:16 31.4 °C 21.3 °C 1019.9 hPa West 1.8 km/h 5.6 km/h 55 % 0 mm
12:21 31.6 °C 21.8 °C 1019.9 hPa WSW 3.2 km/h 5.6 km/h 56 % 0 mm
12:26 31.8 °C 21.9 °C 1019.5 hPa WSW 2.3 km/h 5.6 km/h 56 % 0 mm
12:31 31.9 °C 21.2 °C 1019.5 hPa WNW 2.7 km/h 5.6 km/h 53 % 0 mm
12:36 32.2 °C 22.3 °C 1019.5 hPa WSW 3.5 km/h 7.4 km/h 56 % 0 mm
12:41 32.3 °C 20.8 °C 1019.5 hPa SW 6.1 km/h 9.3 km/h 51 % 0 mm
12:46 32.3 °C 21.5 °C 1019.5 hPa SW 1 km/h 3.7 km/h 53 % 0 mm
12:51 32.4 °C 21.3 °C 1019.2 hPa SW 3.4 km/h 7.4 km/h 52 % 0 mm
12:56 32.5 °C 20.7 °C 1019.2 hPa WSW 4.7 km/h 7.4 km/h 50 % 0 mm
13:01 32.7 °C 22.2 °C 1019.2 hPa WSW 2.3 km/h 4.8 km/h 54 % 0 mm
13:06 32.8 °C 21 °C 1018.8 hPa West 4.7 km/h 8 km/h 50 % 0 mm
13:11 32.8 °C 20.7 °C 1018.8 hPa Calm   7.4 km/h 49 % 0 mm
13:16 32.9 °C 22.1 °C 1018.8 hPa WSW 2.4 km/h 9.7 km/h 53 % 0 mm
13:22 33.1 °C 21.6 °C 1018.8 hPa North 1.6 km/h 5.6 km/h 51 % 0 mm
13:27 33.2 °C 21.7 °C 1018.8 hPa NNW 3.7 km/h 6.4 km/h 51 % 0 mm
13:32 33.1 °C 21.6 °C 1018.8 hPa North 0.3 km/h 5.6 km/h 51 % 0 mm
13:37 33.1 °C 21.9 °C 1018.8 hPa NNE 4.7 km/h 7.4 km/h 52 % 0 mm
13:42 33.1 °C 21.6 °C 1018.8 hPa ENE 3.9 km/h 7.4 km/h 51 % 0 mm
13:47 32.8 °C 21.3 °C 1018.8 hPa NW 3.9 km/h 5.6 km/h 51 % 0 mm
13:52 32.5 °C 21.4 °C 1018.8 hPa North 1.1 km/h 5.6 km/h 52 % 0 mm
13:57 32.3 °C 20.9 °C 1018.8 hPa NW 3.1 km/h 5.6 km/h 51 % 0 mm
14:02 32.1 °C 21.3 °C 1018.8 hPa North 1.6 km/h 7.4 km/h 53 % 0 mm
14:07 31.8 °C 21.6 °C 1018.8 hPa North 1.8 km/h 5.6 km/h 55 % 0 mm
14:12 31.5 °C 21.4 °C 1018.8 hPa NNW 0.3 km/h 5.6 km/h 55 % 0 mm
14:17 31.3 °C 21.4 °C 1018.8 hPa NW 1.6 km/h 5.6 km/h 56 % 0 mm
14:22 31.1 °C 21.2 °C 1018.5 hPa NW 1.8 km/h 3.7 km/h 56 % 0 mm
14:26 30.9 °C 21.7 °C 1018.5 hPa SW 2.7 km/h 5.6 km/h 58 % 0 mm
14:31 30.8 °C 20.7 °C 1018.8 hPa SW 0.2 km/h 1.9 km/h 55 % 0 mm
14:36 30.7 °C 20.3 °C 1018.5 hPa SW 1.4 km/h 5.6 km/h 54 % 0 mm
14:41 30.4 °C 20.1 °C 1018.5 hPa WSW 0.3 km/h 3.7 km/h 54 % 0 mm
14:46 30.3 °C 19.6 °C 1018.5 hPa SSE 1.6 km/h 5.6 km/h 53 % 0 mm
14:51 30 °C 19.4 °C 1018.5 hPa SSW 0.2 km/h 1.6 km/h 53 % 0 mm
14:56 29.8 °C 19.2 °C 1018.2 hPa SSW 1.1 km/h 4.8 km/h 53 % 0 mm
15:01 29.5 °C 19.2 °C 1018.2 hPa SSW 0.8 km/h 3.7 km/h 54 % 0 mm
15:06 29.3 °C 19.6 °C 1018.5 hPa SSW 3.4 km/h 5.6 km/h 56 % 0 mm
15:07 29.3 °C 19.6 °C 1018.2 hPa SE 2.1 km/h 5.6 km/h 56 % 0 mm
15:12 29.1 °C 20 °C 1018.5 hPa SSW 0.3 km/h 1.9 km/h 58 % 0 mm
15:17 28.9 °C 20.1 °C 1018.5 hPa SSW 2.3 km/h 5.6 km/h 59 % 0 mm
15:22 28.8 °C 19.4 °C 1018.2 hPa East 1 km/h 3.7 km/h 57 % 0 mm
15:27 28.7 °C 19.7 °C 1018.2 hPa SE 2.3 km/h 7.4 km/h 58 % 0 mm
15:32 28.6 °C 19.8 °C 1018.2 hPa WSW 0.8 km/h 5.6 km/h 59 % 0 mm
15:37 28.6 °C 20.3 °C 1018.2 hPa SE 0.3 km/h 1.9 km/h 61 % 0 mm
15:42 28.6 °C 20.3 °C 1018.2 hPa SE 0.5 km/h 1.9 km/h 61 % 0 mm
15:47 28.6 °C 20.6 °C 1018.2 hPa SSW 3.9 km/h 9.3 km/h 62 % 0 mm
15:52 28.8 °C 20.5 °C 1018.2 hPa SSW 3.1 km/h 5.6 km/h 61 % 0 mm
15:57 29 °C 20.2 °C 1018.2 hPa South 1.1 km/h 3.7 km/h 59 % 0 mm
16:03 29.2 °C 20.4 °C 1018.2 hPa SW 2.1 km/h 7.4 km/h 59 % 0 mm
16:08 29.4 °C 20 °C 1018.2 hPa SW 1.9 km/h 13 km/h 57 % 0 mm
16:13 29.6 °C 20.2 °C 1018.2 hPa South 0.6 km/h 7.4 km/h 57 % 0 mm
16:18 29.7 °C 19.9 °C 1018.2 hPa SSW 2.4 km/h 5.6 km/h 56 % 0 mm
16:23 29.7 °C 20.3 °C 1018.2 hPa SSE 2.3 km/h 5.6 km/h 57 % 0 mm
16:28 29.8 °C 20.1 °C 1018.2 hPa SE 0.5 km/h 5.6 km/h 56 % 0 mm
16:33 29.9 °C 19.9 °C 1018.2 hPa SW 4.7 km/h 11.1 km/h 55 % 0 mm
16:38 29.9 °C 19.6 °C 1018.2 hPa SSE 2.4 km/h 11.1 km/h 54 % 0 mm
16:43 30 °C 19.4 °C 1017.8 hPa SSE 1.1 km/h 3.7 km/h 53 % 0 mm
16:48 30 °C 20.3 °C 1018.2 hPa SSW 4.8 km/h 9.3 km/h 56 % 0 mm
16:53 30 °C 19.7 °C 1018.2 hPa SW 3.2 km/h 7.4 km/h 54 % 0 mm
16:58 30 °C 20 °C 1018.2 hPa SSW 1.8 km/h 5.6 km/h 55 % 0 mm
17:03 29.9 °C 19.9 °C 1018.2 hPa SE 1.4 km/h 3.7 km/h 55 % 0 mm
17:08 29.7 °C 19.7 °C 1017.8 hPa SSE 2.1 km/h 5.6 km/h 55 % 0 mm
17:13 29.6 °C 19.9 °C 1017.8 hPa South 0.3 km/h 5.6 km/h 56 % 0 mm
17:18 29.4 °C 19.7 °C 1017.8 hPa SE 4.2 km/h 5.6 km/h 56 % 0 mm
17:24 29.2 °C 20.1 °C 1017.8 hPa South 4.8 km/h 5.6 km/h 58 % 0 mm
17:29 29.2 °C 20.1 °C 1017.8 hPa SSW 4 km/h 13 km/h 58 % 0 mm
17:34 29.1 °C 19.9 °C 1017.8 hPa SSW 3.4 km/h 9.3 km/h 58 % 0 mm
17:39 28.9 °C 19.8 °C 1017.8 hPa West 1 km/h 5.6 km/h 58 % 0 mm
17:44 28.8 °C 20.3 °C 1017.8 hPa SSW 1.4 km/h 5.6 km/h 60 % 0 mm
17:49 28.7 °C 19.9 °C 1017.8 hPa SSW 1.9 km/h 5.6 km/h 59 % 0 mm
17:54 28.6 °C 20.1 °C 1017.8 hPa South 2.7 km/h 7.4 km/h 60 % 0 mm
17:59 28.4 °C 19.9 °C 1017.8 hPa SSW 1.4 km/h 3.7 km/h 60 % 0 mm
18:04 28.3 °C 20.1 °C 1017.8 hPa SSW 3.9 km/h 7.4 km/h 61 % 0 mm
18:09 28.2 °C 20 °C 1017.5 hPa SSW 2.4 km/h 9.3 km/h 61 % 0 mm
18:14 28.1 °C 20.1 °C 1017.5 hPa ESE 1.6 km/h 6.4 km/h 62 % 0 mm
18:19 27.9 °C 20.2 °C 1017.5 hPa SSW 4.3 km/h 8 km/h 63 % 0 mm
18:24 27.8 °C 20.2 °C 1017.5 hPa South 3.1 km/h 5.6 km/h 63 % 0 mm
18:29 27.7 °C 20.5 °C 1017.2 hPa SE 0.8 km/h 3.7 km/h 65 % 0 mm
18:34 27.6 °C 20.4 °C 1017.2 hPa South 2.3 km/h 6.4 km/h 65 % 0 mm
18:39 27.4 °C 20.5 °C 1017.2 hPa SSE 1.4 km/h 5.6 km/h 66 % 0 mm
18:44 27.3 °C 20.7 °C 1017.2 hPa South 3.5 km/h 9.3 km/h 67 % 0 mm
18:49 27.2 °C 20.5 °C 1017.2 hPa SSW 1.8 km/h 3.7 km/h 67 % 0 mm
18:54 27.1 °C 20.7 °C 1017.2 hPa SE 1.6 km/h 5.6 km/h 68 % 0 mm
18:59 26.9 °C 20.5 °C 1017.2 hPa South 1.8 km/h 5.6 km/h 68 % 0 mm
19:04 26.8 °C 20.6 °C 1017.2 hPa SSE 0.5 km/h 3.7 km/h 69 % 0 mm
19:09 26.7 °C 20.7 °C 1017.2 hPa South 0.5 km/h 1.9 km/h 70 % 0 mm
19:14 26.4 °C 20.6 °C 1017.2 hPa SSE 5.3 km/h 11.1 km/h 70 % 0 mm
19:19 26.3 °C 20.6 °C 1017.2 hPa SSW 3.7 km/h 5.6 km/h 71 % 0 mm
19:24 26.2 °C 20.5 °C 1017.2 hPa SW 0.6 km/h 5.6 km/h 71 % 0 mm
19:29 26.1 °C 20.6 °C 1017.5 hPa SSW 1.4 km/h 5.6 km/h 72 % 0 mm
19:34 26 °C 20.8 °C 1017.2 hPa SSW 1.1 km/h 3.2 km/h 73 % 0 mm
19:39 25.9 °C 20.7 °C 1017.2 hPa SSW 1.6 km/h 5.6 km/h 73 % 0 mm
19:44 25.8 °C 20.8 °C 1017.2 hPa SSE 0.6 km/h 3.7 km/h 74 % 0 mm
19:49 25.6 °C 20.6 °C 1017.2 hPa SSW 1.3 km/h 1.9 km/h 74 % 0 mm
19:55 25.6 °C 20.8 °C 1017.2 hPa SW 1.8 km/h 5.6 km/h 75 % 0 mm
20:00 25.4 °C 20.7 °C 1017.2 hPa SSW 0.6 km/h 5.6 km/h 75 % 0 mm
20:05 25.3 °C 20.8 °C 1017.5 hPa SSE 1.6 km/h 1.9 km/h 76 % 0 mm
20:10 25.3 °C 20.7 °C 1017.2 hPa SSE 0.5 km/h 5.6 km/h 76 % 0 mm
20:15 25.2 °C 20.8 °C 1017.2 hPa SSE 0.2 km/h 1.9 km/h 77 % 0 mm
20:20 25.1 °C 20.8 °C 1017.2 hPa SE 0.5 km/h 1.9 km/h 77 % 0 mm
20:25 25.1 °C 20.9 °C 1017.5 hPa SE 0.5 km/h 1.9 km/h 78 % 0 mm
20:30 25 °C 21.1 °C 1017.5 hPa SW 2.3 km/h 5.6 km/h 79 % 0 mm
20:35 24.9 °C 21.3 °C 1017.5 hPa SSW 0.3 km/h 1.9 km/h 80 % 0 mm
20:40 24.9 °C 21.2 °C 1017.5 hPa SSW 2.6 km/h 5.6 km/h 80 % 0 mm
20:45 24.9 °C 21.4 °C 1017.8 hPa SSW 1 km/h 5.6 km/h 81 % 0 mm
20:50 24.8 °C 21.3 °C 1017.8 hPa South 0.6 km/h 3.7 km/h 81 % 0 mm
20:55 24.8 °C 21.5 °C 1017.8 hPa South 1.1 km/h 5.6 km/h 82 % 0 mm
21:01 24.7 °C 21.6 °C 1017.8 hPa SSW 1.3 km/h 7.4 km/h 83 % 0 mm
21:06 24.7 °C 21.6 °C 1017.8 hPa SSW 1.6 km/h 8 km/h 83 % 0 mm
21:11 24.7 °C 21.6 °C 1017.8 hPa SW 3.2 km/h 8 km/h 83 % 0 mm
21:16 24.7 °C 21.8 °C 1017.5 hPa SSW 1.6 km/h 4.8 km/h 84 % 0 mm
21:21 24.6 °C 21.7 °C 1017.5 hPa South 1.6 km/h 6.4 km/h 84 % 0 mm
21:26 24.6 °C 21.7 °C 1017.8 hPa Calm   3.2 km/h 84 % 0 mm
21:31 24.6 °C 21.9 °C 1017.5 hPa Calm   4.8 km/h 85 % 0 mm
21:36 24.6 °C 21.9 °C 1017.8 hPa South 1.6 km/h 4.8 km/h 85 % 0 mm
21:41 24.5 °C 22 °C 1017.5 hPa Calm   4.8 km/h 86 % 0 mm
21:46 24.5 °C 22 °C 1017.8 hPa Calm   3.2 km/h 86 % 0 mm
21:51 24.5 °C 22 °C 1017.5 hPa Calm   3.2 km/h 86 % 0 mm
21:56 24.4 °C 21.9 °C 1017.8 hPa Calm   4.8 km/h 86 % 0 mm
22:01 24.4 °C 21.9 °C 1017.5 hPa SW 1.1 km/h 3.7 km/h 86 % 0 mm
22:06 24.4 °C 21.9 °C 1017.5 hPa SSW 3.2 km/h 9.7 km/h 86 % 0 mm
22:11 24.4 °C 21.9 °C 1017.5 hPa SSW 1.6 km/h 3.2 km/h 86 % 0 mm
22:16 24.4 °C 21.9 °C 1017.5 hPa South 1.6 km/h 4.8 km/h 86 % 0 mm
22:21 24.4 °C 22.1 °C 1017.2 hPa WSW 1 km/h 3.7 km/h 87 % 0 mm
22:26 24.4 °C 22.1 °C 1017.2 hPa Calm   4.8 km/h 87 % 0 mm
22:31 24.3 °C 22.1 °C 1017.2 hPa SW 1 km/h 3.7 km/h 87 % 0 mm
22:36 24.3 °C 22.1 °C 1017.2 hPa Calm     87 % 0 mm
22:41 24.3 °C 22.1 °C 1017.2 hPa SSE 0.5 km/h 1.9 km/h 87 % 0 mm
22:46 24.3 °C 22.1 °C 1017.2 hPa SW 1.1 km/h 3.7 km/h 87 % 0 mm
22:51 24.3 °C 22 °C 1017.2 hPa Calm     87 % 0 mm
22:56 24.3 °C 22 °C 1017.2 hPa Calm   1.9 km/h 87 % 0 mm
23:01 24.3 °C 22 °C 1017.2 hPa South 0.2 km/h 1.9 km/h 87 % 0 mm
23:06 24.2 °C 21.9 °C 1017.2 hPa South 0.5 km/h 1.9 km/h 87 % 0 mm
23:12 24.2 °C 21.9 °C 1017.2 hPa WSW 1.1 km/h 5.6 km/h 87 % 0 mm
23:20 24.2 °C 21.9 °C 1017.2 hPa SW 2.7 km/h 6.4 km/h 87 % 0 mm
23:22 24.1 °C 21.8 °C 1017.2 hPa SW 4.2 km/h 4.8 km/h 87 % 0 mm
23:24 24.1 °C 21.8 °C 1017.2 hPa SW 0.3 km/h 5.6 km/h 87 % 0 mm
23:26 24.1 °C 21.8 °C 1017.2 hPa SE 0.5 km/h 5.6 km/h 87 % 0 mm
23:27 24.1 °C 21.8 °C 1017.2 hPa South 1.1 km/h 3.7 km/h 87 % 0 mm
23:32 24.1 °C 21.9 °C 1017.2 hPa SSW 1.6 km/h 5.6 km/h 88 % 0 mm
23:37 24.1 °C 21.9 °C 1016.8 hPa SSW 4.2 km/h 8 km/h 88 % 0 mm
23:42 24 °C 21.9 °C 1016.8 hPa SW 0.8 km/h 3.7 km/h 88 % 0 mm
23:47 24 °C 21.9 °C 1016.8 hPa SW 2.4 km/h 5.6 km/h 88 % 0 mm
23:52 23.9 °C 21.8 °C 1016.8 hPa SW 0.2 km/h 1.9 km/h 88 % 0 mm
23:57 23.9 °C 21.8 °C 1016.8 hPa SW 0.3 km/h 3.7 km/h 88 % 0 mm
Crab Meadow Weather
Compliments of Weather Underground - 3 mb

Script developed by  Jim McMurry - jmcmurry@mwt.net Adapted for the template by  Wim van der Kuil - Leuven-Template.eu

Astronomy: Pluto is not a planet, because it does not have a fixed orbit and it's orbit comes in between the orbit of another planet (Neptune).